CW8496 Weather Reports


time (UTC)temp
C
wind
direction
speed
KPH
gust
KPH
rain 1hr
cm
rain 24hr
cm
rain mn
cm
humidity
%
barometer
mb
20260510130039 10 158 4.8 17.7 0.00 0.00 0.00 84 1039.4
20260510123019 10 135 3.2 16.1 0.00 0.00 0.00 84 1039.6
20260510120018 10 135 3.2 16.1 0.00 0.00 0.00 83 1039.5
20260510113020 11 158 4.8 16.1 0.00 0.00 0.00 81 1039.8
20260510110018 11 158 3.2 16.1 0.00 0.00 0.00 79 1039.5
20260510103019 11 135 3.2 11.3 0.00 0.00 0.00 79 1039.3
20260510100018 11 158 3.2 8.0 0.00 0.00 0.00 79 1038.8
20260510093017 12 135 3.2 9.7 0.00 0.00 0.00 77 1038.2
20260510090017 12 0.0 11.3 0.00 0.00 0.00 72 1037.6
20260510083018 11 0.0 0.0 0.00 0.00 0.00 71 1037.1
20260510080020 12 0.0 3.2 0.00 0.00 0.00 69 1036.7
20260510073039 13 0.0 4.8 0.00 0.00 0.00 64 1036.9
20260510070018 14 135 1.6 8.0 0.00 0.00 0.00 59 1036.8
20260510063017 15 23 1.6 9.7 0.00 0.00 0.00 55 1037.2
20260510060019 16 135 1.6 4.8 0.00 0.00 0.00 53 1037.2
20260510053017 16 0 3.2 12.9 0.00 0.00 0.00 47 1037.2
20260510050017 18 113 3.2 12.9 0.00 0.00 0.00 47 1037.3
20260510043059 18 113 3.2 9.7 0.00 0.00 0.00 48 1037.4
20260510040037 18 113 3.2 11.3 0.00 0.00 0.00 46 1037.2
20260510033017 17 68 3.2 12.9 0.00 0.00 0.00 47 1037.3
20260510030017 17 68 3.2 16.1 0.00 0.00 0.00 46 1037.4
20260510023019 17 23 3.2 11.3 0.00 0.00 0.00 49 1037.6
20260510020017 17 68 3.2 11.3 0.00 0.00 0.00 50 1038.1
20260510013017 17 23 4.8 14.5 0.00 0.00 0.00 55 1038.3
20260510010016 16 45 3.2 12.9 0.00 0.00 0.00 51 1038.3
20260510003018 16 23 4.8 12.9 0.00 0.00 0.00 58 1038.4
20260510000018 15 113 3.2 14.5 0.00 0.00 0.00 58 1038.0
20260509233036 15 113 3.2 9.7 0.00 0.00 0.00 62 1037.9
20260509230019 14 135 3.2 11.3 0.00 0.00 0.00 65 1037.6
20260509223018 13 135 3.2 12.9 0.00 0.00 0.00 67 1037.0
20260509220018 11 158 3.2 11.3 0.00 0.00 0.00 74 1036.3
20260509213018 9 180 3.2 12.9 0.00 0.00 0.00 80 1035.8
20260509210018 8 0.0 8.0 0.00 0.00 0.00 82 1035.4
20260509203022 8 0.0 0.0 0.00 0.00 0.00 80 1035.2
20260509200019 8 0.0 0.0 0.00 0.00 0.00 80 1035.1
20260509193018 8 0.0 0.0 0.00 0.00 0.00 78 1034.9
20260509190018 8 158 1.6 6.4 0.00 0.00 0.00 78 1034.8
20260509183018 8 135 3.2 8.0 0.00 0.00 0.00 77 1035.0
20260509180100 8 158 3.2 9.7 0.00 0.00 0.00 78 1035.1
20260509173039 8 158 1.6 6.4 0.00 0.00 0.00 79 1035.3
20260509170018 8 158 1.6 8.0 0.00 0.00 0.00 79 1035.8
20260509163017 8 158 3.2 9.7 0.00 0.00 0.00 79 1035.7
20260509160038 8 158 3.2 14.5 0.00 0.00 0.00 82 1035.9
20260509153018 8 158 3.2 9.7 0.00 0.00 0.00 83 1035.6
20260509150017 8 158 3.2 8.0 0.00 0.00 0.00 85 1035.8
20260509143038 8 158 1.6 6.4 0.00 0.00 0.00 83 1035.1
20260509140017 8 0.0 0.0 0.00 0.00 0.00 85 1035.4
20260509133018 8 158 1.6 6.4 0.00 0.00 0.00 87 1035.6